Regional Weather Roundup
Issued by NWS

Home | Current Version | Previous Version | Graphics & Text | Print | Product List | Glossary On
Versions: 1 2 3 4 5 6 7 8 9 10 11 12 13 14 15 16 17 18 19 20 21 22 23 24 25 26 27 28 29 30 31 32 33 34 35 36 37 38 39 40 41 42 43 44 45 46 47 48 49 50
000
ASUS45 KBOU 070110
RWRCO

WEATHER ROUNDUP FOR COLORADO
NATIONAL WEATHER SERVICE DENVER/BOULDER CO
700 PM MDT MON JUL 06 2015

NOTE: "FAIR" INDICATES FEW OR NO CLOUDS BELOW 12000 FEET WITH NO
SIGNIFICANT WEATHER AND/OR OBSTRUCTIONS TO VISIBILITY.

COZ001>005-013-030-031-070200-
...NORTHWEST COLORADO...

CITY           SKY/WX    TMP DP  RH WIND       PRES   REMARKS
CRAIG          PTSUNNY   74  54  49 S6        30.13F
HAYDEN         PTSUNNY   73  48  40 E9        30.16F
MEEKER         PTSUNNY   75  53  46 CALM      30.16S
MOUNT WERNER   NOT AVBL
STEAMBOAT SPGS PTSUNNY   69  54  59 W5        30.20S
WALDEN         PTSUNNY   64  46  52 NW7       30.30F
$$

COZ006>008-011-070200-
...WEST CENTRAL VALLEYS...

CITY           SKY/WX    TMP DP  RH WIND       PRES   REMARKS
GRAND JUNCTION CLOUDY    82  50  32 SW8       30.04R
MONTROSE       PTSUNNY   81  45  28 NW9       30.12S
EAGLE          MOSUNNY   75  45  33 CALM      30.20S
RIFLE          PTSUNNY   80  50  34 CALM      30.08F
DELTA          PTSUNNY   83  47  27 W3        30.08S
NUCLA          PTSUNNY   77  43  29 NE3       30.17S
$$

COZ017>023-064>068-070200-
...SOUTHWEST COLORADO...

CITY           SKY/WX    TMP DP  RH WIND       PRES   REMARKS
DURANGO        CLOUDY    66  56  70 S3        30.20R
CORTEZ         CLOUDY    77  51  40 SE12G17   30.14R
PAGOSA SPRINGS CLOUDY    65  50  58 CALM      30.28S
TELLURIDE      PTSUNNY   68  42  40 W6        30.36S
WOLF CREEK PAS NOT AVBL
$$

COZ009-010-012-014-032>034-037-058>063-070200-
...CENTRAL COLORADO...

CITY           SKY/WX    TMP DP  RH WIND       PRES   REMARKS
ASPEN          MOSUNNY   71  45  39 NW3       30.26S
BUENA VISTA    PTSUNNY   64  49  59 E7        30.34R
COPPER MTN     PTSUNNY   54  41  62 N5        30.59S
BERTHOUD PASS  HAZE      37  28  70 SE6       30.63F VSB 1/4
COTTONWOOD PAS NOT AVBL
GUNNISON       MOSUNNY   70  45  40 NW7       30.29F
KREMMLING      PTSUNNY   70  45  40 NW3       30.26F
LEADVILLE      MOSUNNY   57  43  59 S7        30.43R
MONARCH PASS   FOG       45  43  93 NE16      30.67S VSB<1/4
SALIDA         PTSUNNY   60  55  85 E6        30.41S
SUNLIGHT       MOSUNNY   57  48  72 CALM      30.52R
WILKERSON PASS DRZL/FOG  45  43  93 E7        30.59R VSB 1/4
$$

COZ069>075-070200-
...SAN LUIS VALLEY/SANGRE DE CRISTO MOUNTAINS...

CITY           SKY/WX    TMP DP  RH WIND       PRES   REMARKS
ALAMOSA        HVY RAIN  55  53  93 N18G29    30.29R FOG
LA VETA PASS   DRZL/FOG  45  45 100 MISG      30.47F VSB 1/4
SAGUACHE       CLOUDY    59  54  82 E6        30.33R
$$

COZ035-036-038>040-070200-
...NORTHERN COLORADO FRONT RANGE...

CITY           SKY/WX    TMP DP  RH WIND       PRES   REMARKS
DENVER INTL AP CLOUDY    64  53  67 E7        30.25F FOG
DMNS CITY PARK   N/A     61  57  87 SW1G8     30.25F
AURORA         CLOUDY    62  55  78 E5        30.28S
FRONT RANGE AP CLOUDY    63  54  72 NE8       30.27F HAZE
ERIE MUNI ARPT CLOUDY    60  59  94 CALM      30.24F FOG
BOULDER MUN AP DRIZZLE   59  59 100 SW3       30.25F
CENTENNIAL     CLOUDY    60  55  83 E3        30.28S
BROOMFIELD     CLOUDY    59  57  94 CALM      30.28F FOG
FORT COLLINS   CLOUDY    63  55  77 W7        30.26S
LONGMONT       CLOUDY    62  59  91 CALM      30.26F FOG
$$

COZ041-046-047-076>085-087-088-070200-
...PIKES PEAK/PALMER DIVIDE AND SOUTHERN FOOTHILLS...

CITY           SKY/WX    TMP DP  RH WIND       PRES   REMARKS
COLO. SPRINGS  LGT RAIN  60  56  86 NE7       30.30R FOG
A. F. ACADEMY  LGT RAIN  57  55  94 N8        30.31R
ELLICOTT       CLOUDY   N/A N/A N/A NE9       30.28R
FALCON         CLOUDY    56  54  93 NE7       30.34R
FORT CARSON    CLOUDY    59  58  98 NW6       30.28R FOG
LIMON          CLOUDY    63  52  67 N8        30.24F HAZE
MONUMENT HILL  CLOUDY    54  52  94 MISG      30.34S
TRINIDAD       CLOUDY    63  58  83 E5        30.24S
$$

COZ042>045-048>051-090-091-070200-
...NORTHEAST COLORADO...

CITY           SKY/WX    TMP DP  RH WIND       PRES   REMARKS
GREELEY ARPT   CLOUDY    66  54  63 E8        30.23F
AKRON          CLOUDY    66  52  60 N13       30.20F HAZE
BURLINGTON     MOSUNNY   70  53  54 NE17G23   30.16S HAZE
WRAY           PTSUNNY   72  51  48 N12G17    30.16R HAZE
STERLING       PTSUNNY   68  54  60 NE7         N/A  HAZE
HOLYOKE        MOSUNNY   73  54  49 NE13      30.18R HAZE
FORT MORGAN    CLOUDY    66  51  57 NE8       30.22S
$$

COZ086-089-092>099-070200-
...SOUTHEAST COLORADO...

CITY           SKY/WX    TMP DP  RH WIND       PRES   REMARKS
PUEBLO         CLOUDY    69  58  67 NE9       30.21S
LA JUNTA       CLOUDY    71  56  58 NE10      30.16F
LAMAR          CLOUDY    73  56  54 N12       30.11R HAZE
SPRINGFIELD      N/A     66  58  75 N14       30.14S
$$



USA.gov is the U.S. government's official web portal to all federal, state and local government web resources and services.